Weather History for Douglas Bisbee, AZ

Change the Weather History Date:

Saturday, May 18, 2013

  Actual Average Record
Temperature  
Mean Temperature 73 °F 70 °F  
Max Temperature 88 °F 89 °F 100 °F (1996)
Min Temperature 57 °F 52 °F 38 °F (1962)
Degree Days  
Heating Degree Days 0 0  
Month to date heating degree days 2 20  
Since 1 July heating degree days 2559 2521  
Cooling Degree Days 8 6  
Month to date cooling degree days 63 74  
Year to date cooling degree days 92 104  
Growing Degree Days 22 (Base 50)    
Moisture  
Dew Point 22 °F    
Average Humidity 20    
Maximum Humidity 33    
Minimum Humidity 6    
Precipitation  
Precipitation 0.00 in 0.00 in 0.13 in (1954)
Month to date precipitation 0.00 0.15  
Year to date precipitation 0.87 2.27  
Snow  
Snow 0.00 in 0.00 in 0.00 in (2003)
Month to date snowfall 0.0 0.0  
Since 1 July snowfall 0.0 0.8  
Snow Depth 0.00 in    
Sea Level Pressure  
Sea Level Pressure 29.83 in    
Wind  
Wind Speed 11 mph (SW)    
Max Wind Speed 28 mph    
Max Gust Speed 37 mph    
Visibility 10 miles    
Events      
T = Trace of Precipitation, MM = Missing Value Source: NWS Daily Summary

Daily Weather History Graph

Daily Weather History Graph

Search for Another Location

Airport:

Trip Planner

Search our weather history database for the weather conditions in past years. The results will help you decide how hot, cold, wet, or windy it might be!

Date:

Astronomy

May. 18, 2013 Rise Set
Actual Time 5:20 AM MST 7:09 PM MST
Civil Twilight 4:53 AM MST 7:36 PM MST
Nautical Twilight 4:20 AM MST 8:09 PM MST
Astronomical Twilight 3:46 AM MST 8:43 PM MST
Moon 12:41 PM MST 12:47 AM MST
Length of Visible Light 14h 43m
Length of Day
13h 49m
First Quarter, 56% of the Moon is Illuminated
May 18
First Quarter
May 24
Full
May 31
Last Quarter
Jun 8
New
Jun 16
First Quarter

Hourly Weather History & Observations

Time (MST) Temp. Dew Point Humidity Pressure Visibility Wind Dir Wind Speed Gust Speed Precip Events Conditions
12:56 AM 66.0 °F 25.0 °F 21% 29.84 in 10.0 mi WNW 8.1 mph - N/A   Clear
1:56 AM 64.9 °F 28.0 °F 25% 29.84 in 10.0 mi WSW 9.2 mph - N/A   Clear
2:56 AM 61.0 °F 27.0 °F 27% 29.84 in 10.0 mi SE 4.6 mph - N/A   Clear
3:56 AM 63.0 °F 30.9 °F 30% 29.84 in 10.0 mi SW 9.2 mph - N/A   Clear
4:56 AM 62.1 °F 32.0 °F 32% 29.83 in 10.0 mi South 5.8 mph - N/A   Clear
5:56 AM 59.0 °F 30.9 °F 35% 29.86 in 10.0 mi SSE 5.8 mph - N/A   Clear
6:56 AM 66.0 °F 33.1 °F 29% 29.88 in 10.0 mi SSE 4.6 mph - N/A   Clear
7:56 AM 69.1 °F 34.0 °F 27% 29.89 in 10.0 mi Variable 6.9 mph - N/A   Clear
8:56 AM 73.9 °F 28.9 °F 19% 29.88 in 10.0 mi South 11.5 mph 16.1 mph N/A   Clear
9:56 AM 77.0 °F 16.0 °F 10% 29.86 in 10.0 mi WSW 9.2 mph 23.0 mph N/A   Clear
10:56 AM 81.0 °F 10.0 °F 7% 29.84 in 10.0 mi WSW 11.5 mph 19.6 mph N/A   Clear
11:56 AM 82.0 °F 12.9 °F 7% 29.83 in 10.0 mi SW 20.7 mph 28.8 mph N/A   Clear
12:56 PM 82.9 °F 10.9 °F 7% 29.81 in 10.0 mi WSW 10.4 mph 25.3 mph N/A   Clear
1:56 PM 84.9 °F 10.0 °F 6% 29.79 in 10.0 mi West 13.8 mph 24.2 mph N/A   Clear
2:56 PM 86.0 °F 16.0 °F 7% 29.78 in 10.0 mi WSW 13.8 mph 29.9 mph N/A   Clear
3:56 PM 86.0 °F 19.9 °F 9% 29.77 in 10.0 mi West 20.7 mph 34.5 mph N/A   Clear
4:56 PM 84.0 °F 21.0 °F 10% 29.77 in 10.0 mi WSW 25.3 mph 29.9 mph N/A   Clear
5:56 PM 82.0 °F 23.0 °F 11% 29.78 in 10.0 mi SW 20.7 mph 32.2 mph N/A   Clear
6:56 PM 79.0 °F 21.0 °F 12% 29.78 in 10.0 mi WSW 13.8 mph - N/A   Clear
7:56 PM 75.0 °F 19.9 °F 13% 29.80 in 10.0 mi WSW 12.7 mph - N/A   Clear
8:56 PM 72.0 °F 19.0 °F 13% 29.81 in 10.0 mi WSW 10.4 mph - N/A   Clear
9:56 PM 66.0 °F 18.0 °F 16% 29.83 in 10.0 mi SW 9.2 mph - N/A   Clear
10:56 PM 64.0 °F 19.9 °F 18% 29.83 in 10.0 mi WNW 6.9 mph - N/A   Clear
11:56 PM 66.0 °F 25.0 °F 21% 29.83 in 10.0 mi WSW 9.2 mph - N/A   Clear